Location: Gleizolles
(44.4833°N, 6.7667°E)
Time: 17:00:44
(UTC+00:00)

Altair - Pass Details

Date: 03 July 2024
Orbit: 1502 x 1681 km, 47.2° (Epoch: 13 July)

Event Time Altitude Azimuth Distance (km) Brightness Sun altitude
Rises 20:18:47 0° 196° (SSW) 4,649 9.7 -8.8°
Reaches altitude 10° 20:22:24 10° 185° (S) 3,656 9.1 -9.3°
Maximum altitude 20:29:39 27° 132° (SE) 2,561 8.1 -10.2°
Drops below altitude 10° 20:36:53 10° 79° (ENE) 3,664 9.2 -11.0°
Sets 20:40:29 0° 68° (ENE) 4,661 9.8 -11.5°
